ABL8013 RKSS-RKPC

Flight info

Callsign ABL8013
Flight time 1h 1m
Altitude 38000
Route BULTI2Q BULTI Y711 DOTOL DOTOL2P
Aircraft A20N/M-SDE2E3FGHIRWXY/LB1

Departure

Time 2025-09-09 14:27
Airport Gimpo International Airport (RKSS)

Arrival

Time 2025-09-09 15:28
Airport Jeju International Airport (RKPC)
Time Latitude Longitude Altitude Speed Heading
2025-09-09 13:31 37.55626 126.80489 53 ft 0 kts 45°
2025-09-09 14:08 37.55607 126.80465 51 ft 3 kts 45°
2025-09-09 14:08 37.55579 126.80404 51 ft 3 kts 39°
2025-09-09 14:09 37.55547 126.80399 51 ft 0 kts 324°
2025-09-09 14:19 37.55581 126.80336 53 ft 0 kts 266°
2025-09-09 14:19 37.55569 126.80304 51 ft 7 kts 235°
2025-09-09 14:19 37.55518 126.80236 52 ft 13 kts 225°
2025-09-09 14:20 37.55196 126.80478 51 ft 7 kts 135°
2025-09-09 14:21 37.55195 126.80480 51 ft 0 kts 135°
2025-09-09 14:21 37.55173 126.80507 54 ft 11 kts 136°
2025-09-09 14:22 37.54961 126.80773 54 ft 14 kts 134°
2025-09-09 14:22 37.54951 126.80785 53 ft 0 kts 135°
2025-09-09 14:23 37.54859 126.80786 54 ft 0 kts 221°
2025-09-09 14:24 37.54815 126.80681 55 ft 12 kts 286°
2025-09-09 14:24 37.54855 126.80607 55 ft 0 kts 316°
2025-09-09 14:25 37.55061 126.80348 53 ft 69 kts 315°
2025-09-09 14:25 37.55557 126.79730 54 ft 131 kts 315°
2025-09-09 14:26 37.57171 126.77709 700 ft 168 kts 314°
2025-09-09 14:26 37.58700 126.75499 1891 ft 181 kts 310°
2025-09-09 14:27 37.60731 126.72794 2489 ft 244 kts 314°
2025-09-09 14:27 37.62114 126.68780 3768 ft 270 kts 264°
2025-09-09 14:28 37.60208 126.64701 5298 ft 281 kts 226°
2025-09-09 14:28 37.55787 126.59587 7600 ft 292 kts 200°
2025-09-09 14:29 37.53828 126.58977 8452 ft 290 kts 186°
2025-09-09 14:29 37.49799 126.58444 10091 ft 297 kts 184°
2025-09-09 14:30 37.45443 126.57904 10879 ft 335 kts 185°
2025-09-09 14:30 37.40585 126.57439 11651 ft 361 kts 176°
2025-09-09 14:31 37.35623 126.58529 12910 ft 369 kts 168°
2025-09-09 14:31 37.30586 126.60017 14228 ft 376 kts 166°
2025-09-09 14:32 37.25486 126.61714 15464 ft 382 kts 167°
2025-09-09 14:32 37.17686 126.64296 17253 ft 391 kts 168°
2025-09-09 14:33 37.15036 126.65168 17821 ft 394 kts 168°
2025-09-09 14:33 37.09745 126.66907 18811 ft 400 kts 169°
2025-09-09 14:34 37.04309 126.68691 19741 ft 405 kts 169°
2025-09-09 14:34 36.98835 126.70487 20667 ft 410 kts 170°
2025-09-09 14:35 36.93284 126.72309 21616 ft 415 kts 171°
2025-09-09 14:35 36.87725 126.74576 22558 ft 426 kts 165°
2025-09-09 14:35 36.84999 126.75959 23017 ft 429 kts 164°
2025-09-09 14:36 36.79434 126.78820 23827 ft 435 kts 164°
2025-09-09 14:37 36.70798 126.82465 24005 ft 435 kts 179°
2025-09-09 14:37 36.64798 126.83006 24000 ft 430 kts 185°
2025-09-09 14:38 36.58869 126.83140 24000 ft 429 kts 185°
2025-09-09 14:38 36.52907 126.83270 23996 ft 428 kts 185°
2025-09-09 14:39 36.46946 126.83456 23995 ft 429 kts 185°
2025-09-09 14:39 36.40978 126.83680 23991 ft 429 kts 185°
2025-09-09 14:40 36.35088 126.83386 23986 ft 425 kts 190°
2025-09-09 14:40 36.32145 126.83106 23989 ft 425 kts 191°
2025-09-09 14:41 36.23316 126.82132 23986 ft 424 kts 191°
2025-09-09 14:41 36.17449 126.81478 23980 ft 424 kts 191°
2025-09-09 14:42 36.11604 126.80838 23978 ft 425 kts 191°
2025-09-09 14:42 36.05719 126.80199 23980 ft 424 kts 191°
2025-09-09 14:43 35.99832 126.79561 23977 ft 424 kts 191°
2025-09-09 14:43 35.93957 126.78925 23978 ft 424 kts 191°
2025-09-09 14:44 35.88108 126.78293 23979 ft 424 kts 191°
2025-09-09 14:44 35.85169 126.77975 23978 ft 424 kts 191°
2025-09-09 14:45 35.76335 126.77017 23976 ft 425 kts 191°
2025-09-09 14:45 35.70448 126.76381 23980 ft 425 kts 191°
2025-09-09 14:46 35.64612 126.75752 23983 ft 425 kts 191°
2025-09-09 14:46 35.58706 126.75116 23971 ft 425 kts 191°
2025-09-09 14:47 35.52808 126.74481 23973 ft 426 kts 190°
2025-09-09 14:47 35.46900 126.73848 23972 ft 426 kts 190°
2025-09-09 14:48 35.40984 126.73215 23974 ft 427 kts 190°
2025-09-09 14:48 35.38062 126.72902 23969 ft 428 kts 190°
2025-09-09 14:49 35.29163 126.71951 23970 ft 428 kts 190°
2025-09-09 14:49 35.23232 126.71318 23969 ft 428 kts 190°
2025-09-09 14:50 35.17348 126.70692 23968 ft 428 kts 190°
2025-09-09 14:50 35.11408 126.70062 23963 ft 428 kts 190°
2025-09-09 14:51 35.05460 126.69429 23957 ft 428 kts 190°
2025-09-09 14:51 34.99573 126.68805 23963 ft 428 kts 190°
2025-09-09 14:52 34.93644 126.68176 23966 ft 428 kts 190°
2025-09-09 14:52 34.90675 126.67862 23966 ft 428 kts 190°
2025-09-09 14:53 34.81774 126.66921 23963 ft 428 kts 190°
2025-09-09 14:53 34.75824 126.66295 23954 ft 429 kts 190°
2025-09-09 14:54 34.69910 126.65672 23542 ft 430 kts 190°
2025-09-09 14:54 34.64161 126.65080 22994 ft 392 kts 190°
2025-09-09 14:55 34.58998 126.64560 22449 ft 354 kts 191°
2025-09-09 14:55 34.54305 126.64074 21915 ft 326 kts 191°
2025-09-09 14:56 34.49829 126.63586 21338 ft 325 kts 191°
2025-09-09 14:56 34.47587 126.63341 20879 ft 324 kts 191°
2025-09-09 14:57 34.40821 126.62620 19504 ft 325 kts 190°
2025-09-09 14:57 34.36333 126.62153 18655 ft 324 kts 189°
2025-09-09 14:58 34.31880 126.61689 17753 ft 323 kts 189°
2025-09-09 14:58 34.27400 126.61223 16804 ft 322 kts 189°
2025-09-09 14:59 34.22957 126.60760 15881 ft 320 kts 188°
2025-09-09 14:59 34.18544 126.60300 14985 ft 317 kts 188°
2025-09-09 15:00 34.14190 126.59848 14116 ft 314 kts 187°
2025-09-09 15:00 34.12013 126.59622 13683 ft 313 kts 187°
2025-09-09 15:01 34.05715 126.58971 12233 ft 292 kts 187°
2025-09-09 15:01 34.01755 126.58548 11307 ft 281 kts 190°
2025-09-09 15:02 33.98203 126.56924 10437 ft 275 kts 217°
2025-09-09 15:02 33.95224 126.54101 9531 ft 268 kts 220°
2025-09-09 15:03 33.92363 126.51293 8996 ft 265 kts 220°
2025-09-09 15:03 33.89501 126.48505 8926 ft 264 kts 220°
2025-09-09 15:04 33.86666 126.45756 8781 ft 261 kts 220°
2025-09-09 15:04 33.85249 126.44384 8378 ft 262 kts 220°
2025-09-09 15:05 33.80977 126.40254 7211 ft 261 kts 220°
2025-09-09 15:05 33.78177 126.37550 6929 ft 258 kts 220°
2025-09-09 15:06 33.75386 126.34857 6931 ft 259 kts 220°
2025-09-09 15:06 33.73271 126.31460 6937 ft 292 kts 255°
2025-09-09 15:07 33.73432 126.26910 6922 ft 260 kts 278°
2025-09-09 15:07 33.73969 126.22633 6926 ft 259 kts 269°
2025-09-09 15:07 33.73866 126.20483 6928 ft 258 kts 262°
2025-09-09 15:08 33.73390 126.16219 6928 ft 258 kts 261°
2025-09-09 15:09 33.71987 126.09997 6924 ft 258 kts 245°
2025-09-09 15:09 33.70465 126.06091 6927 ft 258 kts 245°
2025-09-09 15:10 33.68639 126.02417 6928 ft 258 kts 231°
2025-09-09 15:10 33.66251 125.99190 6928 ft 258 kts 229°
2025-09-09 15:11 33.63784 125.96108 6914 ft 258 kts 219°
2025-09-09 15:11 33.60768 125.93763 6923 ft 259 kts 212°
2025-09-09 15:12 33.57670 125.91544 6923 ft 261 kts 211°
2025-09-09 15:12 33.56003 125.90678 6924 ft 262 kts 199°
2025-09-09 15:13 33.48886 125.88554 6916 ft 265 kts 188°
2025-09-09 15:13 33.45180 125.88567 6915 ft 267 kts 179°
2025-09-09 15:14 33.43325 125.88677 6917 ft 267 kts 179°
2025-09-09 15:14 33.39641 125.89176 6911 ft 269 kts 166°
2025-09-09 15:15 33.36102 125.90609 6918 ft 270 kts 162°
2025-09-09 15:15 33.32587 125.92217 6904 ft 272 kts 154°
2025-09-09 15:16 33.29480 125.94834 6905 ft 275 kts 138°
2025-09-09 15:16 33.28374 125.96676 6898 ft 270 kts 114°
2025-09-09 15:17 33.29357 126.02603 6418 ft 247 kts 60°
2025-09-09 15:17 33.30117 126.06530 5764 ft 244 kts 82°
2025-09-09 15:18 33.30989 126.10387 5486 ft 239 kts 65°
2025-09-09 15:18 33.32620 126.13851 5390 ft 239 kts 56°
2025-09-09 15:19 33.35073 126.16426 4988 ft 228 kts 26°
2025-09-09 15:19 33.37789 126.17960 4723 ft 205 kts 22°
2025-09-09 15:20 33.40333 126.19297 4190 ft 197 kts 21°
2025-09-09 15:20 33.41580 126.19946 3987 ft 194 kts 22°
2025-09-09 15:21 33.44847 126.22180 3973 ft 162 kts 58°
2025-09-09 15:21 33.45024 126.23413 3957 ft 147 kts 106°
2025-09-09 15:22 33.43641 126.26728 3023 ft 148 kts 120°
2025-09-09 15:22 33.42707 126.28777 2824 ft 137 kts 117°
2025-09-09 15:23 33.42289 126.30608 2859 ft 139 kts 92°
2025-09-09 15:23 33.42712 126.32845 2726 ft 139 kts 65°
2025-09-09 15:24 33.43685 126.34827 2361 ft 136 kts 58°
2025-09-09 15:24 33.44186 126.35782 2173 ft 135 kts 58°
2025-09-09 15:25 33.45658 126.38607 1671 ft 132 kts 59°
2025-09-09 15:25 33.47092 126.41351 1176 ft 129 kts 59°
2025-09-09 15:26 33.47562 126.42251 1009 ft 126 kts 60°
2025-09-09 15:26 33.48515 126.44001 637 ft 126 kts 56°
2025-09-09 15:27 33.49440 126.45748 252 ft 124 kts 69°
2025-09-09 15:27 33.50389 126.47631 99 ft 119 kts 57°
2025-09-09 15:28 33.50871 126.48630 96 ft 32 kts 77°
2025-09-09 15:28 33.50885 126.48866 96 ft 27 kts 88°
2025-09-09 15:29 33.50853 126.49034 95 ft 0 kts 155°
2025-09-09 15:34 33.50833 126.49049 94 ft 10 kts 148°
2025-09-09 15:35 33.50739 126.49167 96 ft 6 kts 146°
2025-09-09 15:35 33.50715 126.49185 96 ft 0 kts 147°